Location: Misciano
(43.5000°N, 11.9500°E)
Time: 00:05:11
(UTC+00:00)

Okean 1-7 - Pass Details

Date: 13 August 2020
Orbit: 590 x 619 km, 82.5° (Epoch: 23 September)

Event Time Altitude Azimuth Distance (km) Brightness Sun altitude
Rises 20:29:01 0° 353° (N) 2,868 7.3 -20.6°
Reaches altitude 10° 20:31:16 10° 356° (N) 1,955 6.3 -20.9°
Maximum altitude 20:35:34 71° 80° (E) 636 2.9 -21.4°
Enters shadow 20:35:59 65° 123° (ESE) 659 2.9 -21.5°
